When you browse on this site, cookies collect data to enhance your experience and personalize the content and advertising you see.
Visit our Privacy Policy to learn more. By continuing to use the site, you agree to this use of cookies and data.
  • In France
  • List of Countries
  • For 7 days
  • Water Temperature
  • Satellite Maps
  • Weather Map
  • Weather Widgets
  • user-avatar
    Login

    Hourly Weather Smolan

    Today, 27 May, Monday

    Time Temperature Precipitation Wind Pressure Humidity
    00:00 +12°C° 0 mm 1 mps 656 mmHg 93%
    01:00 +12°C° 0 mm 1 mps 656 mmHg 93%
    02:00 +12°C° 0 mm 1 mps 655 mmHg 92%
    03:00 +11°C° 0 mm 1 mps 655 mmHg 92%
    04:00 +11°C° 0 mm 1 mps 655 mmHg 92%
    05:00 +11°C° 0 mm 1 mps 655 mmHg 93%
    06:00 +13°C° 0 mm 1 mps 656 mmHg 86%
    07:00 +15°C° 0 mm 1 mps 656 mmHg 80%
    08:00 +18°C° 0 mm 1 mps 657 mmHg 73%
    09:00 +18°C° 0 mm 2 mps 657 mmHg 65%
    10:00 +19°C° 0 mm 2 mps 658 mmHg 56%
    11:00 +20°C° 0 mm 3 mps 658 mmHg 48%
    12:00 +21°C° 0 mm 3 mps 658 mmHg 47%
    13:00 +21°C° 0 mm 3 mps 658 mmHg 47%
    14:00 +21°C° 0 mm 3 mps 658 mmHg 47%
    15:00 +21°C° 0 mm 3 mps 657 mmHg 50%
    16:00 +20°C° 0 mm 2 mps 657 mmHg 52%
    17:00 +19°C° 0 mm 2 mps 656 mmHg 55%
    18:00 +17°C° 0 mm 2 mps 655 mmHg 62%
    19:00 +15°C° 0 mm 1 mps 655 mmHg 70%
    20:00 +13°C° 0 mm 1 mps 654 mmHg 77%
    21:00 +12°C° 0 mm 1 mps 654 mmHg 73%
    22:00 +12°C° 0 mm 1 mps 654 mmHg 70%
    23:00 +10°C° 0 mm 2 mps 654 mmHg 67%

    Tomorrow, 28 May, Tuesday

    Time Temperature Precipitation Wind Pressure Humidity
    00:00 +11°C° 0 mm 1 mps 653 mmHg 64%
    01:00 +11°C° 0 mm 1 mps 653 mmHg 61%
    02:00 +11°C° 0 mm 1 mps 653 mmHg 57%
    03:00 +11°C° 0 mm 1 mps 653 mmHg 58%
    04:00 +11°C° 0 mm 1 mps 652 mmHg 59%
    05:00 +10°C° 0 mm 1 mps 652 mmHg 59%
    06:00 +13°C° 0 mm 2 mps 653 mmHg 57%
    07:00 +15°C° 0 mm 2 mps 653 mmHg 56%
    08:00 +18°C° 0 mm 3 mps 654 mmHg 54%
    09:00 +19°C° 0 mm 4 mps 654 mmHg 52%
    10:00 +19°C° 0 mm 4 mps 654 mmHg 50%
    11:00 +20°C° 0 mm 5 mps 654 mmHg 48%
    12:00 +20°C° 0 mm 5 mps 654 mmHg 48%
    13:00 +20°C° 0 mm 6 mps 654 mmHg 48%
    14:00 +20°C° 0 mm 6 mps 653 mmHg 48%
    15:00 +20°C° 0 mm 5 mps 653 mmHg 51%
    16:00 +19°C° 0 mm 4 mps 652 mmHg 53%
    17:00 +18°C° 0 mm 4 mps 652 mmHg 55%
    18:00 +16°C° 0 mm 3 mps 651 mmHg 67%
    19:00 +14°C° 0 mm 2 mps 651 mmHg 79%
    20:00 +12°C° 0 mm 2 mps 650 mmHg 91%
    21:00 +10°C° 0 mm 2 mps 650 mmHg 91%
    22:00 +10°C° 0 mm 2 mps 651 mmHg 92%
    23:00 +10°C° 0 mm 2 mps 651 mmHg 92%

    Day after tomorrow, 29 May, Wednesday

    Time Temperature Precipitation Wind Pressure Humidity
    00:00 +9°C° 0 mm 2 mps 651 mmHg 91%
    01:00 +9°C° 0 mm 2 mps 651 mmHg 90%
    02:00 +9°C° 0 mm 2 mps 651 mmHg 89%
    03:00 +10°C° 0 mm 1 mps 651 mmHg 87%
    04:00 +10°C° 0 mm 1 mps 651 mmHg 86%
    05:00 +10°C° 0 mm 1 mps 651 mmHg 85%
    06:00 +12°C° 0 mm 1 mps 652 mmHg 77%
    07:00 +15°C° 0 mm 1 mps 653 mmHg 69%
    08:00 +18°C° 0 mm 1 mps 654 mmHg 61%
    09:00 +20°C° 0 mm 1 mps 655 mmHg 58%
    10:00 +20°C° 0 mm 2 mps 655 mmHg 54%
    11:00 +21°C° 0 mm 2 mps 656 mmHg 51%
    12:00 +21°C° 0.1 mm 3 mps 655 mmHg 53%
    13:00 +21°C° 0.1 mm 3 mps 655 mmHg 55%
    14:00 +21°C° 0.1 mm 3 mps 655 mmHg 57%
    15:00 +20°C° 0.4 mm 3 mps 655 mmHg 61%
    16:00 +20°C° 0.4 mm 3 mps 654 mmHg 64%
    17:00 +19°C° 0.4 mm 3 mps 654 mmHg 68%
    18:00 +17°C° 0.3 mm 2 mps 654 mmHg 77%
    19:00 +15°C° 0.3 mm 2 mps 653 mmHg 86%
    20:00 +13°C° 0.3 mm 1 mps 653 mmHg 95%
    21:00 +13°C° 0 mm 1 mps 653 mmHg 95%
    22:00 +12°C° 0 mm 1 mps 653 mmHg 95%
    23:00 +12°C° 0 mm 1 mps 653 mmHg 95%

    30 May, Thursday

    Time Temperature Precipitation Wind Pressure Humidity
    00:00 +12°C° 0 mm 1 mps 653 mmHg 92%
    01:00 +11°C° 0 mm 1 mps 653 mmHg 90%
    02:00 +11°C° 0 mm 1 mps 653 mmHg 88%
    03:00 +11°C° 0 mm 1 mps 653 mmHg 87%
    04:00 +11°C° 0 mm 1 mps 653 mmHg 85%
    05:00 +11°C° 0 mm 1 mps 653 mmHg 84%
    06:00 +13°C° 0 mm 1 mps 654 mmHg 77%
    07:00 +15°C° 0 mm 1 mps 654 mmHg 70%
    08:00 +19°C° 0 mm 1 mps 655 mmHg 63%
    09:00 +20°C° 0.2 mm 1 mps 655 mmHg 62%
    10:00 +19°C° 0.2 mm 2 mps 656 mmHg 61%
    11:00 +20°C° 0.2 mm 2 mps 656 mmHg 61%
    12:00 +20°C° 0.5 mm 2 mps 656 mmHg 61%
    13:00 +20°C° 0.5 mm 2 mps 655 mmHg 62%
    14:00 +20°C° 0.5 mm 3 mps 655 mmHg 63%
    15:00 +20°C° 0.5 mm 3 mps 655 mmHg 65%
    16:00 +19°C° 0.5 mm 2 mps 654 mmHg 67%
    17:00 +19°C° 0.5 mm 2 mps 654 mmHg 70%
    18:00 +17°C° 0.2 mm 2 mps 654 mmHg 78%
    19:00 +15°C° 0.2 mm 1 mps 653 mmHg 87%
    20:00 +13°C° 0.2 mm 1 mps 653 mmHg 95%
    21:00 +12°C° 0 mm 1 mps 653 mmHg 95%
    22:00 +12°C° 0 mm 1 mps 653 mmHg 95%
    23:00 +11°C° 0 mm 1 mps 653 mmHg 95%

    31 May, Friday

    Time Temperature Precipitation Wind Pressure Humidity
    00:00 +11°C° 0 mm 1 mps 653 mmHg 94%
    01:00 +11°C° 0 mm 1 mps 652 mmHg 93%
    02:00 +11°C° 0 mm 1 mps 652 mmHg 92%
    03:00 +10°C° 0.2 mm 1 mps 652 mmHg 92%
    04:00 +10°C° 0.2 mm 1 mps 652 mmHg 92%
    05:00 +10°C° 0.2 mm 1 mps 652 mmHg 93%
    06:00 +12°C° 0.7 mm 1 mps 652 mmHg 90%
    07:00 +13°C° 0.7 mm 1 mps 653 mmHg 87%
    08:00 +15°C° 0.7 mm 1 mps 653 mmHg 84%
    09:00 +15°C° 1 mm 1 mps 653 mmHg 83%
    10:00 +16°C° 1 mm 1 mps 654 mmHg 81%
    11:00 +16°C° 1 mm 1 mps 654 mmHg 79%
    12:00 +17°C° 1 mm 2 mps 654 mmHg 76%
    13:00 +17°C° 1 mm 2 mps 653 mmHg 72%
    14:00 +17°C° 1 mm 2 mps 653 mmHg 69%
    15:00 +18°C° 0.9 mm 1 mps 653 mmHg 70%
    16:00 +18°C° 0.9 mm 1 mps 653 mmHg 72%
    17:00 +16°C° 0.9 mm 1 mps 653 mmHg 74%
    18:00 +15°C° 0.7 mm 1 mps 652 mmHg 79%
    19:00 +12°C° 0.7 mm 0 mps 652 mmHg 85%
    20:00 +10°C° 0.7 mm 0 mps 651 mmHg 90%
    21:00 +10°C° 0.2 mm 1 mps 651 mmHg 91%
    22:00 +10°C° 0.2 mm 1 mps 651 mmHg 92%
    23:00 +9°C° 0.2 mm 1 mps 651 mmHg 93%

    1 June, Saturday

    Time Temperature Precipitation Wind Pressure Humidity
    00:00 +9°C° 0 mm 1 mps 651 mmHg 93%
    01:00 +9°C° 0 mm 1 mps 651 mmHg 94%
    02:00 +9°C° 0 mm 1 mps 651 mmHg 94%
    03:00 +9°C° 0 mm 1 mps 650 mmHg 94%
    04:00 +8°C° 0 mm 1 mps 650 mmHg 94%
    05:00 +8°C° 0 mm 1 mps 650 mmHg 94%
    06:00 +10°C° 0.1 mm 1 mps 651 mmHg 89%
    07:00 +12°C° 0.1 mm 1 mps 652 mmHg 84%
    08:00 +15°C° 0.1 mm 1 mps 652 mmHg 80%
    09:00 +15°C° 0.6 mm 1 mps 653 mmHg 78%
    10:00 +16°C° 0.6 mm 1 mps 653 mmHg 77%
    11:00 +16°C° 0.6 mm 1 mps 653 mmHg 75%
    12:00 +16°C° 1.7 mm 1 mps 652 mmHg 77%
    13:00 +16°C° 1.7 mm 1 mps 652 mmHg 79%
    14:00 +16°C° 1.7 mm 1 mps 652 mmHg 81%
    15:00 +15°C° 1.8 mm 1 mps 652 mmHg 83%
    16:00 +14°C° 1.8 mm 1 mps 651 mmHg 85%
    17:00 +14°C° 1.8 mm 1 mps 651 mmHg 87%
    18:00 +13°C° 1.6 mm 1 mps 651 mmHg 89%
    19:00 +12°C° 1.6 mm 1 mps 651 mmHg 90%
    20:00 +11°C° 1.6 mm 1 mps 650 mmHg 92%
    21:00 +11°C° 1.5 mm 1 mps 651 mmHg 93%
    22:00 +10°C° 1.5 mm 1 mps 651 mmHg 94%
    23:00 +10°C° 1.5 mm 1 mps 651 mmHg 95%
    Show more